Back to catalog

DELTA 1 DEB *

AliveSSO
NORAD 8791·DEBRIS·🇺🇸 United States

Launched Oct 2, 1966 from Vandenberg Space Force Base

Loading…

Next Passes (next 24 hours)

TLE

FreshSource: Space-Track

Epoch: Sep 12, 2026, 22:05 UTC

1  8791U 66087F   26255.92065138  .00000142  00000-0  98298-3 0  9992
2  8791 101.6560 236.6196 0141600  27.5212 359.0698 12.63970459755496

Track DELTA 1 DEB * in real time with AllMySat

Download on the App Store